Location: Larrial
(48.2758°N, 4.5331°W)
Time: 17:40:02
(UTC+00:00)

AAUSAT CUBESAT 2 - Pass Details

Date: 28 November 2021
Orbit: 572 x 586 km, 97.5° (Epoch: 16 January)

Event Time Altitude Azimuth Distance (km) Brightness Sun altitude
Rises 04:58:18 0° 20° (NNE) 2,793 ? -26.9°
Reaches altitude 10° 05:00:36 10° 30° (NNE) 1,891 ? -26.5°
Maximum altitude 05:04:22 35° 97° (E) 946 ? -25.9°
Drops below altitude 10° 05:08:07 10° 163° (SSE) 1,883 ? -25.3°
Sets 05:10:24 0° 173° (S) 2,779 ? -24.9°
